When you browse on this site, cookies collect data to enhance your experience and personalize the content and advertising you see.
Visit our Privacy Policy to learn more. By continuing to use the site, you agree to this use of cookies and data.
  • In Österreich
  • Länderverzeichnis
  • Für 7 Tage
  • Wassertemperatur
  • Wetterkarte
  • News
  • Widgets
  • user-avatar
    Anmelden

    Stündliche Wetter Nachiczewan

    Heute, 29 Mai, Freitag

    Zeit Temperatur Niederschläge Wind Luftdruck Luftfeuchtigkeit
    00:00 +26°C° 0 mm 2 m/S 688 mmHg 39%
    01:00 +26°C° 0 mm 2 m/S 688 mmHg 39%
    02:00 +25°C° 0 mm 2 m/S 687 mmHg 39%
    03:00 +25°C° 0 mm 1 m/S 687 mmHg 39%
    04:00 +25°C° 0 mm 1 m/S 687 mmHg 38%
    05:00 +26°C° 0 mm 1 m/S 687 mmHg 38%
    06:00 +24°C° 0 mm 0 m/S 687 mmHg 38%
    07:00 +28°C° 0.1 mm 1 m/S 687 mmHg 33%
    08:00 +29°C° 0.1 mm 1 m/S 687 mmHg 29%
    09:00 +30°C° 0.1 mm 1 m/S 687 mmHg 24%
    10:00 +32°C° 0 mm 2 m/S 686 mmHg 21%
    11:00 +35°C° 0 mm 3 m/S 686 mmHg 19%
    12:00 +37°C° 0 mm 4 m/S 686 mmHg 16%
    13:00 +39°C° 0 mm 6 m/S 686 mmHg 15%
    14:00 +39°C° 0 mm 8 m/S 686 mmHg 13%
    15:00 +40°C° 0 mm 10 m/S 686 mmHg 12%
    16:00 +39°C° 0 mm 9 m/S 686 mmHg 14%
    17:00 +37°C° 0 mm 8 m/S 685 mmHg 15%
    18:00 +35°C° 0 mm 7 m/S 685 mmHg 16%
    19:00 +33°C° 0 mm 5 m/S 685 mmHg 20%
    20:00 +30°C° 0 mm 3 m/S 685 mmHg 24%
    21:00 +28°C° 0 mm 1 m/S 685 mmHg 27%
    22:00 +27°C° 0 mm 1 m/S 685 mmHg 29%
    23:00 +26°C° 0 mm 1 m/S 685 mmHg 30%

    Morgen, 30 Mai, Samstag

    Zeit Temperatur Niederschläge Wind Luftdruck Luftfeuchtigkeit
    00:00 +25°C° 0 mm 1 m/S 684 mmHg 32%
    01:00 +25°C° 0 mm 1 m/S 684 mmHg 33%
    02:00 +24°C° 0 mm 1 m/S 684 mmHg 35%
    03:00 +21°C° 0 mm 0 m/S 684 mmHg 37%
    04:00 +23°C° 0 mm 1 m/S 684 mmHg 37%
    05:00 +23°C° 0 mm 2 m/S 684 mmHg 37%
    06:00 +22°C° 0 mm 3 m/S 685 mmHg 38%
    07:00 +25°C° 0 mm 3 m/S 685 mmHg 33%
    08:00 +26°C° 0 mm 4 m/S 685 mmHg 28%
    09:00 +27°C° 0 mm 4 m/S 685 mmHg 23%
    10:00 +28°C° 0 mm 4 m/S 685 mmHg 21%
    11:00 +30°C° 0 mm 3 m/S 685 mmHg 20%
    12:00 +31°C° 0 mm 2 m/S 685 mmHg 18%
    13:00 +32°C° 0 mm 2 m/S 685 mmHg 17%
    14:00 +32°C° 0 mm 2 m/S 685 mmHg 15%
    15:00 +34°C° 0 mm 2 m/S 685 mmHg 14%
    16:00 +34°C° 0 mm 2 m/S 685 mmHg 14%
    17:00 +34°C° 0 mm 2 m/S 686 mmHg 14%
    18:00 +34°C° 0 mm 3 m/S 686 mmHg 15%
    19:00 +31°C° 0 mm 2 m/S 686 mmHg 21%
    20:00 +29°C° 0 mm 2 m/S 686 mmHg 27%
    21:00 +27°C° 0 mm 1 m/S 687 mmHg 34%
    22:00 +26°C° 0 mm 2 m/S 687 mmHg 36%
    23:00 +25°C° 0 mm 2 m/S 687 mmHg 38%

    übermorgen, 31 Mai, Sonntag

    Zeit Temperatur Niederschläge Wind Luftdruck Luftfeuchtigkeit
    00:00 +24°C° 0 mm 2 m/S 687 mmHg 40%
    01:00 +24°C° 0 mm 2 m/S 687 mmHg 39%
    02:00 +23°C° 0 mm 2 m/S 687 mmHg 37%
    03:00 +21°C° 0 mm 2 m/S 687 mmHg 35%
    04:00 +21°C° 0 mm 2 m/S 687 mmHg 34%
    05:00 +23°C° 0 mm 2 m/S 688 mmHg 33%
    06:00 +23°C° 0 mm 2 m/S 688 mmHg 32%
    07:00 +24°C° 0 mm 2 m/S 688 mmHg 29%
    08:00 +25°C° 0 mm 3 m/S 688 mmHg 27%
    09:00 +26°C° 0 mm 3 m/S 688 mmHg 24%
    10:00 +27°C° 0 mm 3 m/S 688 mmHg 23%
    11:00 +29°C° 0 mm 3 m/S 688 mmHg 21%
    12:00 +30°C° 0 mm 3 m/S 688 mmHg 20%
    13:00 +30°C° 0 mm 2 m/S 688 mmHg 18%
    14:00 +31°C° 0 mm 2 m/S 688 mmHg 17%
    15:00 +31°C° 0 mm 1 m/S 687 mmHg 16%
    16:00 +31°C° 0 mm 2 m/S 687 mmHg 17%
    17:00 +31°C° 0 mm 2 m/S 687 mmHg 18%
    18:00 +31°C° 0 mm 3 m/S 687 mmHg 19%
    19:00 +30°C° 0 mm 3 m/S 687 mmHg 25%
    20:00 +28°C° 0 mm 2 m/S 688 mmHg 30%
    21:00 +26°C° 0 mm 1 m/S 688 mmHg 35%
    22:00 +25°C° 0 mm 2 m/S 687 mmHg 40%
    23:00 +24°C° 0 mm 2 m/S 687 mmHg 44%

    1 Juni, Montag

    Zeit Temperatur Niederschläge Wind Luftdruck Luftfeuchtigkeit
    00:00 +24°C° 0 mm 2 m/S 687 mmHg 48%
    01:00 +23°C° 0 mm 2 m/S 687 mmHg 50%
    02:00 +21°C° 0 mm 2 m/S 687 mmHg 52%
    03:00 +21°C° 0 mm 2 m/S 686 mmHg 54%
    04:00 +22°C° 0 mm 1 m/S 687 mmHg 53%
    05:00 +22°C° 0 mm 1 m/S 687 mmHg 52%
    06:00 +23°C° 0 mm 1 m/S 687 mmHg 50%
    07:00 +24°C° 0 mm 1 m/S 687 mmHg 46%
    08:00 +25°C° 0 mm 1 m/S 687 mmHg 42%
    09:00 +27°C° 0 mm 1 m/S 687 mmHg 38%
    10:00 +28°C° 0 mm 1 m/S 687 mmHg 33%
    11:00 +30°C° 0 mm 2 m/S 687 mmHg 28%
    12:00 +32°C° 0 mm 2 m/S 687 mmHg 24%
    13:00 +34°C° 0 mm 2 m/S 687 mmHg 21%
    14:00 +35°C° 0 mm 3 m/S 687 mmHg 18%
    15:00 +36°C° 0 mm 3 m/S 687 mmHg 15%
    16:00 +35°C° 0 mm 4 m/S 686 mmHg 15%
    17:00 +35°C° 0 mm 5 m/S 686 mmHg 15%
    18:00 +34°C° 0 mm 6 m/S 686 mmHg 15%
    19:00 +32°C° 0 mm 4 m/S 686 mmHg 18%
    20:00 +29°C° 0 mm 3 m/S 686 mmHg 21%
    21:00 +28°C° 0 mm 1 m/S 686 mmHg 24%
    22:00 +27°C° 0 mm 1 m/S 686 mmHg 26%
    23:00 +26°C° 0 mm 1 m/S 685 mmHg 29%

    2 Juni, Dienstag

    Zeit Temperatur Niederschläge Wind Luftdruck Luftfeuchtigkeit
    00:00 +25°C° 0 mm 1 m/S 685 mmHg 32%
    01:00 +24°C° 0 mm 1 m/S 685 mmHg 34%
    02:00 +24°C° 0 mm 1 m/S 685 mmHg 35%
    03:00 +23°C° 0 mm 1 m/S 684 mmHg 37%
    04:00 +24°C° 0 mm 1 m/S 685 mmHg 36%
    05:00 +25°C° 0 mm 1 m/S 685 mmHg 35%
    06:00 +26°C° 0 mm 1 m/S 685 mmHg 33%
    07:00 +27°C° 0 mm 1 m/S 685 mmHg 28%
    08:00 +29°C° 0 mm 1 m/S 685 mmHg 24%
    09:00 +31°C° 0 mm 2 m/S 685 mmHg 19%
    10:00 +34°C° 0 mm 4 m/S 685 mmHg 17%
    11:00 +35°C° 0 mm 5 m/S 685 mmHg 14%
    12:00 +38°C° 0 mm 7 m/S 685 mmHg 12%
    13:00 +38°C° 0 mm 7 m/S 685 mmHg 12%
    14:00 +38°C° 0 mm 8 m/S 684 mmHg 11%
    15:00 +39°C° 0 mm 8 m/S 684 mmHg 11%
    16:00 +38°C° 0 mm 8 m/S 684 mmHg 12%
    17:00 +37°C° 0 mm 8 m/S 684 mmHg 13%
    18:00 +34°C° 0 mm 7 m/S 684 mmHg 15%
    19:00 +32°C° 0 mm 7 m/S 684 mmHg 18%
    20:00 +29°C° 0 mm 7 m/S 684 mmHg 21%
    21:00 +27°C° 0 mm 6 m/S 684 mmHg 25%
    22:00 +26°C° 0 mm 6 m/S 684 mmHg 26%
    23:00 +24°C° 0 mm 6 m/S 685 mmHg 27%

    3 Juni, Mittwoch

    Zeit Temperatur Niederschläge Wind Luftdruck Luftfeuchtigkeit
    00:00 +23°C° 0 mm 6 m/S 685 mmHg 27%
    01:00 +22°C° 0 mm 5 m/S 685 mmHg 29%
    02:00 +22°C° 0 mm 4 m/S 685 mmHg 31%
    03:00 +21°C° 0 mm 3 m/S 685 mmHg 33%
    04:00 +21°C° 0 mm 2 m/S 685 mmHg 33%
    05:00 +23°C° 0 mm 2 m/S 685 mmHg 33%
    06:00 +23°C° 0 mm 1 m/S 686 mmHg 32%
    07:00 +25°C° 0 mm 1 m/S 686 mmHg 29%
    08:00 +26°C° 0 mm 1 m/S 686 mmHg 25%
    09:00 +27°C° 0 mm 1 m/S 686 mmHg 22%
    10:00 +29°C° 0 mm 1 m/S 686 mmHg 20%
    11:00 +30°C° 0 mm 1 m/S 686 mmHg 18%
    12:00 +32°C° 0 mm 1 m/S 686 mmHg 16%
    13:00 +32°C° 0.1 mm 4 m/S 686 mmHg 23%
    14:00 +29°C° 0.1 mm 6 m/S 686 mmHg 29%
    15:00 +28°C° 0.1 mm 8 m/S 686 mmHg 36%
    16:00 +28°C° 0.2 mm 7 m/S 686 mmHg 35%
    17:00 +28°C° 0.2 mm 5 m/S 686 mmHg 34%
    18:00 +28°C° 0.2 mm 3 m/S 687 mmHg 33%
    19:00 +27°C° 0.1 mm 2 m/S 687 mmHg 37%
    20:00 +26°C° 0.1 mm 2 m/S 687 mmHg 42%
    21:00 +24°C° 0.1 mm 1 m/S 687 mmHg 46%
    22:00 +24°C° 0 mm 1 m/S 687 mmHg 47%
    23:00 +23°C° 0 mm 1 m/S 687 mmHg 49%
    Mehr zeigen